Regional Weather Roundup
Issued by NWS Cleveland, OH

Home | Current Version | Previous Version | Graphics & Text | Print | Product List | Glossary On
Versions: 1 2 3 4 5 6 7 8 9 10 11 12 13 14 15 16 17 18 19 20 21 22 23 24 25 26 27 28 29 30 31 32 33 34 35 36 37 38 39 40 41 42 43 44 45 46 47 48 49 50
000
ASUS41 KCLE 051310
RWRCLE
OHIO REGIONAL WEATHER ROUNDUP
NATIONAL WEATHER SERVICE WILMINGTON, OH
800 AM EST THU MAR 05 2015

NOTE: "FAIR" INDICATES FEW OR NO CLOUDS BELOW 12,000 FEET WITH NO
SIGNIFICANT WEATHER AND/OR OBSTRUCTIONS TO VISIBILITY.

OHZ001>008-015>018-024>027-034-035-043-044-051400-
   NORTHWEST OHIO

CITY           SKY/WX    TMP DP  RH WIND       PRES   REMARKS
DEFIANCE       CLOUDY    12   0  58 N5        30.37R WCI   4
FINDLAY        CLOUDY    15   3  59 N9        30.33R WCI   3
TOLEDO EXPRESS CLOUDY    11   1  64 N3        30.36R
TOLEDO EXEC    CLOUDY    14   2  58 N6        30.37R WCI   5
LIMA           CLOUDY    15   2  56 N9        30.33R WCI   3
$$

OHZ009>014-019>023-028>033-038-089-051400-
   NORTHEAST OHIO

CITY           SKY/WX    TMP DP  RH WIND       PRES   REMARKS
CLE-HOPKINS    CLOUDY    11   2  67 NE14      30.35R WCI  -5
CLE-LAKEFRONT  CLOUDY    12   3  67 NE10G18   30.34R WCI  -1
CUY CO. ARPT   CLOUDY    12   3  67 NE12      30.32R WCI  -2
LORAIN-ELYRIA  CLOUDY    12   5  73 NE10      30.32R WCI  -1
ASHTABULA      CLOUDY    10   0  63 N8        30.32R WCI  -2
AKRON-CANTON   FLURRIES  14   5  67 NE13      30.26R WCI   0
WOOSTER        CLOUDY    13   4  67 NE9       30.27R WCI   1
MANSFIELD      CLOUDY    13   2  61 N10       30.26R WCI   0
YOUNGSTOWN     CLOUDY    12   1  61 N12       30.26R WCI  -2
$$

OHZ042-051>053-060>062-070>072-077>081-051400-
  SOUTHWEST OHIO

CITY           SKY/WX    TMP DP  RH WIND       PRES   REMARKS
CINC-COVINGTON CLOUDY    19   9  65 N9        30.28S WCI   8
CINC-LUNKEN    CLOUDY    18  14  84 CALM      30.33F
HAMILTON       CLOUDY    20   8  60 N7        30.32S WCI  11
DAYTON         CLOUDY    17   4  56 N13       30.30S WCI   4
WRIGHT-PAT AFB CLOUDY    17   2  53 N9        30.30S WCI   5
DAYTON GENERAL CLOUDY    18   5  57 N15       30.28S WCI   4
WILMINGTON     CLOUDY    16   5  62 N9        30.25F WCI   4
$$

OHZ036-037-039>041-045>050-054>059-063>069-073>076-082>088-051400-
  CENTRAL AND SOUTHEAST OHIO

CITY           SKY/WX    TMP DP  RH WIND       PRES   REMARKS
COLUMBUS       CLOUDY    17   5  59 N10       30.28R WCI   5
OSU AIRPORT    CLOUDY    17   5  59 N10       30.28R WCI   5
BOLTON FIELD   CLOUDY    18   5  57 N12       30.28R WCI   5
RICKENBACK AFB CLOUDY    18   6  58 N10       30.29R WCI   6
NEWARK         CLOUDY    19   6  57 N9        30.27R WCI   8
MARION         CLOUDY    15   4  61 N10       30.30R WCI   2
LANCASTER      CLOUDY    18   7  62 N7        30.27R WCI   9
ZANESVILLE     LGT SNOW  16  10  77 NE7       30.26R WCI   6
NEW PHILLY     CLOUDY    18   3  52 N10       30.27R WCI   6
$$


USA.gov is the U.S. government's official web portal to all federal, state and local government web resources and services.